Regional Weather Roundup
Issued by NWS

Home | Current Version | Previous Version | Text Only | Print | Product List | Glossary On
Versions: 1 2 3 4 5 6 7 8 9 10 11 12 13 14 15 16 17 18 19 20 21 22 23 24 25 26 27 28 29 30 31 32 33 34 35 36 37 38 39 40 41 42 43 44 45 46 47 48 49 50
000
ASUS44 KLIX 182312
RWRLA
LOUISIANA WEATHER ROUNDUP
NATIONAL WEATHER SERVICE NEW ORLEANS LA
500 PM CST SAT NOV 18 2017

NOTE: "FAIR" INDICATES FEW OR NO CLOUDS BELOW 12,000 FEET WITH NO
      SIGNIFICANT WEATHER AND/OR OBSTRUCTIONS TO VISIBILITY.
      SKY/WX - SKY CONDITION AND SIGNIFICANT WEATHER.
      TMP - AIR TEMPERATURE.    DP   - DEWPOINT TEMPERATURE.
      RH  - RELATIVE HUMIDITY.  PRES - PRESSURE.
      HX  - HEAT INDEX.         WCI  - WIND CHILL INDEX.

*  THESE STATIONS ARE NOT NWS OR FAA STATIONS AND ARE NOT UNDER
   NWS QUALITY CONTROL.

LAZ040-048-061>063-065-066-069-190000-
SOUTHEAST LOUISIANA

CITY           SKY/WX    TMP DP  RH WIND       PRES   REMARKS
N.O. INTL ARPT MOCLDY    78  68  71 SW10      29.86R
N.O. LAKEFRONT PTCLDY    76  67  73 SW14G24   29.85S
N.O. DOWNTOWN* FAIR      77  67  71 S7        29.87R
RESERVE*       CLOUDY    78  67  68 SW9G17    29.85S
SLIDELL        MOCLDY    76  65  68 SW9       29.83S
BATON ROUGE    PTCLDY    75  68  78 SW16      29.83R
BOOTHVILLE     MOCLDY    77  70  79 SW12      29.90R
BELLE CHASSE   PTCLDY    72  72 100 SW7       29.86S
BOGALUSA*      NOT AVBL
GALLIANO*      PTCLDY    75  67  76 SW10      29.87F
NEW ROADS*     MOCLDY    78  66  66 SW9       29.82R
GONZALES*      MOCLDY    75  69  79 SW8       29.84R
HAMMOND*       MOCLDY    75  66  73 SW9       29.83R
HOUMA*         PTCLDY    75  68  78 SW9       29.87R
PORT FOURCHON* NOT AVBL

$$

LAZ041-044-053-054-190000-
SOUTHWEST LOUISIANA

CITY           SKY/WX    TMP DP  RH WIND       PRES   REMARKS
LAKE CHARLES   CLEAR     79  70  74 SW6       29.83R
LAFAYETTE      CLEAR     76  69  79 SW15      29.83S
PATTERSON      CLOUDY    74  71  91 SW13      29.87R
SALT POINT       N/A     73  70  90 VRB7      29.85R
NEW IBERIA     CLEAR     77  67  71 SW10      29.85R
CHENAULT AIRPK PTCLDY    81  70  69 W7        29.83R

$$

LAZ027-028-190000-
CENTRAL LOUISIANA

CITY           SKY/WX    TMP DP  RH WIND       PRES   REMARKS
FORT POLK      CLOUDY    76  55  48 NW21G30   29.86R
ALEXANDRIA INT CLOUDY    78  56  46 NW29G45   29.81R
ALEXANDRIA     LGT RAIN  78  66  66 W8        29.81R

$$

LAZ001-002-190000-
NORTHWEST LOUISIANA

CITY           SKY/WX    TMP DP  RH WIND       PRES   REMARKS
SHREVEPORT     MOCLDY    65  45  48 N21G29    29.98R
BARKSDALE AFB  MOCLDY    64  43  46 N20G30    29.97R
DTN SHREVEPORT CLOUDY    65  44  46 N16G29    29.98R

$$

LAZ014-016-190000-
NORTHEAST LOUISIANA

CITY           SKY/WX    TMP DP  RH WIND       PRES   REMARKS
MONROE         CLEAR     66  50  56 NW20G37   29.88R
TALLULAH       LGT RAIN  68  67  96 W12G30    29.79R FOG

$$




USA.gov is the U.S. government's official web portal to all federal, state and local government web resources and services.